#timestamp,LO_Frequency,Hit,StdDev 
1589707835.8,286046927.7,P
1589707855.6,286046926.1,P
1589707875.5,286046929.2,P
1589707895.3,286046924.9,Y
1589707915.2,286046996.9,P
1589707935.9,286046997.9,N
1589707955.7,286046998.0,N
1589707975.6,286046995.9,N
1589707995.4,286046996.3,N
1589708015.2,286046996.2,N
1589708035.1,286046994.0,N
1589708036.0,286046994.0,N
1589708055.8,286046994.5,N
1589708075.7,286046993.0,N
1589708095.5,286046991.1,N
1589708115.3,286046988.9,N
1589708135.2,286046989.5,N
1589708155.0,286046987.5,N
1589708155.9,286046987.5,N
1589708175.7,286046987.1,N
1589708195.6,286046986.7,N
1589708215.4,286046986.4,N
1589708235.3,286046986.1,N
1589708255.1,286046983.7,N
1589708275.8,286046983.7,N
1589708295.7,286046984.2,N
1589708315.5,286046985.1,N
1589708335.4,286046983.2,N
1589708355.2,286046981.3,N
1589708375.0,286046981.5,N
1589708375.9,286046981.5,N
1589708395.8,286046979.5,N
1589708415.6,286046979.9,N
1589708435.4,286046980.0,N
1589708455.3,286046980.4,Y
1589708475.1,286046988.8,P
1589708495.9,286046989.8,P
1589708515.7,286046990.0,P
1589708535.6,286046988.1,Y
1589708555.4,286046996.9,P
1589708575.2,286046996.8,N
1589708595.1,286046999.2,N
1589708596.0,286046999.2,N
1589708615.8,286046996.8,N
1589708635.6,286046997.4,N
1589708655.5,286046996.2,N
1589708675.3,286046995.9,N
1589708695.2,286046993.4,N
1589708715.9,286046996.4,N
1589708735.7,286046994.6,N
1589708755.6,286046993.9,N
1589708775.4,286046993.9,N
1589708795.3,286046994.6,N
1589708815.1,286046993.1,N
1589708816.0,286046993.1,N
1589708835.8,286046993.1,N
1589708855.7,286046990.7,Y
1589708875.5,286046993.3,P
1589708895.4,286046993.9,P
1589708915.2,286046994.4,P
1589708935.0,286046992.0,Y
1589708935.9,286046992.0,P
1589708955.8,286046996.7,P
1589708975.6,286046996.7,N
1589708995.4,286046997.2,N
1589709015.3,286046996.7,N
1589709035.1,286046998.9,N
1589709055.9,286046997.7,N
1589709075.7,286046998.0,N
1589709095.5,286046996.2,N
1589709115.4,286046994.5,N
1589709135.2,286046992.2,Y
1589709155.1,286046997.7,P
1589709156.0,286046997.7,P
1589709175.8,286046996.5,P
1589709195.6,286046996.7,Y
1589709215.5,286046998.5,P
1589709235.3,286046996.5,P
1589709255.2,286046997.7,N
1589709275.9,286046997.1,Y
1589709295.7,286046999.7,P
1589709315.6,286047000.2,N
1589709335.4,286046999.0,N
1589709355.2,286046999.0,N
1589709375.1,286046998.8,N
1589709376.0,286046998.8,N
1589709395.8,286046997.7,N
1589709415.7,286046999.2,N
1589709435.5,286046997.0,Y
1589709455.3,286046996.5,P
1589709475.2,286046996.9,N
1589709495.0,286046999.5,N
1589709495.9,286046999.5,N
1589709515.8,286046999.5,N
1589709535.6,286046996.5,N
1589709555.4,286046995.2,Y
1589709575.3,286046997.9,P
1589709595.1,286046997.8,P
